星链-11623 (STARLINK-11623)

导读 | 豆包AI

STARLINK-11623是美国SpaceX星链星座的一员,于2025年3月15日发射入轨,属于低轨互联网通信卫星。星链项目依托数千颗近地轨道卫星组网,旨在为全球用户提供高速度、低延迟的宽带互联网服务,可支撑在线游戏、高清流媒体、视频通讯等应用。该卫星的发射延续了星链系统星座扩容进程,进一步完善星座覆盖能力,推动全球无缝网络覆盖的实现。

基本信息
目录编号:
63276
目录名称:
STARLINK-11623
国际标识:
2025-053M
轨道中心:
EARTH
卫星名称:
星链-11623
卫星全名:
星链-11623 (STARLINK-11623)
卫星状态:
在轨 (已飞行364 天)
发射日期:
2025-03-15 UTC
国别 :
美国 (US)
星等 :
--
轨道信息
数据来源 国际轨道数据
星历时间: 2026-03-14T17:09:37+0800
14小时前
查看轨道信息
半长轴: 6734.173km
偏心率: 0.0003749
轨道倾角: 43.001°
近地点辐角 262.457°
升交点赤经 84.289°
平近点角 97.587°
近地点: 353.511km
远地点: 358.561km
周期: 91.661分钟
每日圈数: 15.710007
详细信息
固有亮度:
5
最大亮度:
2.5
卫星平台:
Starlink V1.0
覆盖范围:
全球
运营商:
太空探索技术公司
运营商所在国:
美国
制造商(研发单位):
太空探索技术公司
制造商所在国:
美国
使用方式:
暂无
卫星简介
Starlink 计划是 SpaceX 推出的全球卫星互联网项目,通过发射低轨道卫星,为全球尤其是偏远地区提供高速、低延迟的互联网服务。自 2019 年起,Starlink 已部署数千颗卫星,旨在缩小全球数字鸿沟,推动互联网普及。该项目还为军事、航空等行业提供通信支持,带来广泛经济效益。
2D轨道图
3D轨道图
轨道高度分析图
轨道倾角分析图
轨道综合分析图
查看轨道综合分析图